FREGAT R/B, 44851

Orbit data source: Space-Track

FREGAT R/B, 44851 is space debris in MEO originally from a launch on Wed, 11 Dec 2019 UTC launched from the Plesetsk Missile And Space Complex (PKMTR). Debris objects in space refer to the collection of defunct objects orbiting the Earth. Examples of debris include non-operational satellites, rocket bodies, and fragments generated from explosions, collisions, or faulty payload assembly.

Loading next visibility...
Identifier
44851, 2019-088B
Orbit
MEO
Country
Flag of CISCIS
Related business
Manufacturer
Lavochkin
Mission
Spacecraft
Bus & Motor
FREGAT, Unknown motor
Mass
1,000 kg wet, 1,000 kg dry
Launch date (UTC)
2019-12-11 (6 years ago)
Launch vehicle
Unknown
Launch site
Plesetsk Missile And Space Complex (PKMTR)
Object type
Payload
Rocket body
Debris
Shape & HBR
Irr, 1.7 m
Radar Cross Section
12.110 m², Large (>1 m²)

Expand to show TLE details & history
Last TLE update: 22 hours ago

TLE from 22 hours ago
0 FREGAT R/B
1 44851U 19088B   25258.46849785  .00000041  00000-0  00000-0 0  9996
2 44851  65.3638  85.6547 0107717  99.9769 261.2985  2.09212864 44074
Epoch: 2025-09-15T11:14Z
TLE epoch observation values (Epoch: 2025-09-15T11:14:38.214Z)
Latitude
0.00001°
Longitude
-77.68008°
Altitude
19,490.805 km
Speed
3.922 km/s
True Right ascension
05h 42m 36s
True Declination
0° 00' 00"
Sunlit
Object was in daylight at epoch
Visualization orbit readout
Latitude
Unknown
Longitude
Unknown
Altitude
Unknown
Speed
Unknown
Apparent Right ascension
Unknown
Apparent Declination
Unknown
Sunlit
N/A
Visualization observer readout
Local Sidereal Time
01:49:25
Azimuth
Unknown
Elevation
Unknown
Doppler factor
Unknown
Orbital elements
Apogee altitude
19,722.798 km
Perigee altitude
19,166.487 km
Semi-major axis
25,822.779 km
Eccentricity
0.01077
Inclination
65.3638°
RAAN
85.6547°
Arg. of periapsis
99.9769°
True anomaly
260.08093°
Mean anomaly
261.2985°
Eccentric anomaly
260.68946°
Mean motion
0.52304 °/min
Orbital period
688.28 mins
BSTAR
0
Loading maneuver chart data...
Computing Atmospheric mass density...
Loading historical data...
Loading historical data...
Loading historical data...
Loading historical data...
Loading historical data...
Loading historical data...
Loading historical data...
Other satellites on launch #88 in the year 2019 (2019-12-11 UTC)

Documentation

Showing up to 5 results
|